Flag for U.S.A. Weather past 2 weeks in Portland, Oregon, U.S.A.

Now
82 °F

Sunny.


Feels Like: 82 °F
Forecast: 58 / 91 °F
Wind: 7 mph from West

Location: Portland International Airport

Current Time: Sep 20, 2014 at 2:05:25 PM

Latest Report: Sep 20, 2014 at 12:53 PM


Visibility: 10 mi

Pressure: 29.91 "Hg

Humidity: 46%

Dew point: 59 °F

Location of PortlandLocation

Historic Weather in Portland — Graph

°F

Portland temperature yesterday

Maximum temperature yesterday: 81 °F (at 2:53 PM)
Minimum temperature yesterday: 62 °F (at 2:53 AM)
Average temperature yesterday: 70 °F

Past Weeks' High & Low Weather Summary

 TemperatureHumidityPressure
High94 °F (Sep 6, 3:53 PM)97% (Sep 18, 9:53 AM)30.21 "Hg (Sep 18, 9:53 AM)
Low52 °F (Sep 12, 5:53 AM)12% (Sep 13, 1:53 PM)29.68 "Hg (Sep 17, 5:53 PM)
Average69 °F56%29.92 "Hg
* Reported Sep 5 12:53 PM — Sep 20 12:53 PM, Portland, Weather by CustomWeather, © 2014

Note: Actual official high and low records may vary slightly from our data, if they occured in-between our weather recording intervals... More about our weather records

Advertising

Portland weather history for previous 24 hours

 ConditionsComfort  
Time TempWeatherWind HumidityBarometerVisibility
12:53 PM
Sep 20
82 °FSunny.7 mph46%29.91 "Hg10 mi
11:53 AM76 °FSunny.6 mph56%29.94 "Hg10 mi
10:53 AM71 °FSunny.5 mph63%29.96 "Hg10 mi
5:53 AM60 °FPassing clouds.6 mph93%30.01 "Hg10 mi
4:53 AM61 °FPassing clouds.3 mph90%30.01 "Hg10 mi
3:53 AM61 °FPassing clouds.3 mph90%30.02 "Hg10 mi
2:53 AM62 °FClear.5 mph90%30.02 "Hg10 mi
1:53 AM63 °FClear.6 mph87%30.03 "Hg10 mi
12:53 AM64 °FClear.6 mph84%30.03 "Hg10 mi
11:53 PM
Sep 19
67 °FClear.7 mph79%30.03 "Hg10 mi
10:53 PM68 °FClear.8 mph76%30.04 "Hg10 mi
9:53 PM70 °FClear.9 mph68%30.03 "Hg10 mi
8:53 PM71 °FClear.9 mph63%30.02 "Hg10 mi
7:53 PM74 °FPassing clouds.8 mph60%30.01 "Hg10 mi
6:53 PM77 °FPassing clouds.7 mph50%30.00 "Hg10 mi
5:53 PM80 °FPassing clouds.6 mph45%30.01 "Hg10 mi
4:53 PM81 °FPassing clouds.6 mph44%30.02 "Hg10 mi
3:53 PM81 °FPassing clouds.9 mph38%30.03 "Hg10 mi
2:53 PM81 °FScattered clouds.8 mph37%30.05 "Hg10 mi
Weather by CustomWeather, © 2014

See weather overviewHow to use our weather pages